Weather History for KTEB - November, 2014

Change the Weather History Date:

Tuesday, November 25, 2014

  Actual Average Record
Temperature  
Mean Temperature 57 °F -  
Max Temperature 66 °F 49 °F 68 °F (2004)
Min Temperature 48 °F 34 °F 21 °F (2005)
Degree Days  
Heating Degree Days 8    
Growing Degree Days 7 (Base 50)    
Moisture  
Dew Point 35 °F    
Average Humidity 48    
Maximum Humidity 75    
Minimum Humidity 35    
Precipitation  
Precipitation 0.00 in - - ()
Sea Level Pressure  
Sea Level Pressure 29.97 in    
Wind  
Wind Speed 9 mph (WSW)    
Max Wind Speed 15 mph    
Max Gust Speed 21 mph    
Visibility 10 miles    
Events      
Averages and records for this station are not official NWS values.
T = Trace of Precipitation, MM = Missing Value Source: NWS Daily Summary

Daily Weather History Graph

Daily Weather History Graph

Search for Another Location

Airport or City:

Trip Planner

Search our weather history database for the weather conditions in past years. The results will help you decide how hot, cold, wet, or windy it might be!

Date:

Astronomy

Nov. 25, 2014 Rise Set
Actual Time 6:54 AM EST 4:31 PM EST
Civil Twilight 6:24 AM EST 5:01 PM EST
Nautical Twilight 5:50 AM EST 5:35 PM EST
Astronomical Twilight 5:18 AM EST 6:08 PM EST
Moon 9:37 AM EST (11/25) 7:54 PM EST (11/25)
Length of Visible Light 10h 36m
Length of Day
9h 36m
Waxing Crescent, 12% of the Moon is Illuminated
Nov 25
Waxing Crescent
Nov 29
First Quarter
Dec 6
Full
Dec 14
Last Quarter
Dec 21
New

Hourly Weather History & Observations

Time (EST) Temp. Dew Point Humidity Pressure Visibility Wind Dir Wind Speed Gust Speed Precip Events Conditions
12:51 AM 66.9 °F 55.9 °F 68% 29.74 in 10.0 mi SW 11.5 mph - N/A   Clear
1:51 AM 66.0 °F 55.9 °F 70% 29.74 in 10.0 mi WSW 10.4 mph - N/A   Clear
2:51 AM 63.0 °F 55.0 °F 75% 29.77 in 10.0 mi SW 5.8 mph - N/A   Clear
3:51 AM 64.0 °F 54.0 °F 70% 29.79 in 10.0 mi WSW 3.5 mph - N/A   Clear
4:51 AM 61.0 °F 48.9 °F 64% 29.83 in 10.0 mi WSW 6.9 mph - N/A   Clear
5:51 AM 61.0 °F 42.1 °F 50% 29.86 in 10.0 mi West 8.1 mph - N/A   Clear
6:51 AM 59.0 °F 36.0 °F 42% 29.90 in 10.0 mi West 6.9 mph - N/A   Scattered Clouds
7:51 AM 57.0 °F 34.0 °F 42% 29.93 in 10.0 mi West 11.5 mph - N/A   Clear
8:51 AM 55.9 °F 33.1 °F 42% 29.96 in 10.0 mi WNW 13.8 mph - N/A   Mostly Cloudy
9:51 AM 55.0 °F 28.0 °F 35% 29.99 in 10.0 mi West 15.0 mph 20.7 mph N/A   Overcast
10:51 AM 54.0 °F 28.0 °F 37% 29.99 in 10.0 mi West 9.2 mph - N/A   Scattered Clouds
11:51 AM 54.0 °F 27.0 °F 35% 29.98 in 10.0 mi West 10.4 mph 17.3 mph N/A   Partly Cloudy
12:51 PM 54.0 °F 28.0 °F 37% 29.99 in 10.0 mi WNW 12.7 mph - N/A   Clear
1:51 PM 54.0 °F 28.9 °F 38% 29.98 in 10.0 mi West 10.4 mph - N/A   Clear
2:51 PM 54.0 °F 28.0 °F 37% 29.98 in 10.0 mi WSW 8.1 mph - N/A   Clear
3:51 PM 54.0 °F 28.0 °F 37% 30.00 in 10.0 mi SW 8.1 mph - N/A   Clear
4:51 PM 52.0 °F 28.9 °F 41% 30.01 in 10.0 mi SW 6.9 mph - N/A   Clear
5:51 PM 53.1 °F 28.0 °F 38% 30.03 in 10.0 mi South 9.2 mph - N/A   Clear
6:51 PM 52.0 °F 28.0 °F 40% 30.06 in 10.0 mi SW 8.1 mph - N/A   Clear
7:51 PM 51.1 °F 28.9 °F 43% 30.08 in 10.0 mi WSW 5.8 mph - N/A   Clear
8:51 PM 48.0 °F 30.0 °F 50% 30.11 in 10.0 mi SW 5.8 mph - N/A   Clear
9:51 PM 48.9 °F 30.0 °F 48% 30.13 in 10.0 mi SW 5.8 mph - N/A   Clear
10:51 PM 48.0 °F 30.9 °F 52% 30.15 in 10.0 mi WSW 5.8 mph - N/A   Clear
11:51 PM 48.0 °F 30.0 °F 50% 30.16 in 10.0 mi SSW 6.9 mph - N/A   Clear